Location: *
(50.3440°N, 18.6237°E)
Time: 19:07:06
(UTC+00:00)

N. Korean satellite - Visible Passes

Search period start: 05 March 2021 00:00
Search period end: 15 March 2021 00:00
Orbit: 451 x 502 km, 97.2° (Epoch: 05 March)

Date Brightness Start Highest point End Pass type
(mag) Time Alt. Az. Time Alt. Az. Time Alt. Az.
05 Mar 10.2 03:00:01 10° E 03:00:07 10° E 03:00:12 10° E visible
05 Mar 6.5 04:30:20 10° N 04:33:52 74° WNW 04:37:26 10° SSW visible
06 Mar 7.4 04:03:36 10° NNE 04:07:05 52° E 04:10:36 10° S visible
07 Mar 8.9 03:37:09 10° NE 03:40:13 26° E 03:43:17 10° SSE visible
08 Mar 9.8 03:11:15 10° ENE 03:13:14 14° E 03:15:12 10° ESE visible
09 Mar 6.8 04:16:30 10° NNE 04:20:04 76° ESE 04:23:41 10° S visible
10 Mar 8.3 03:49:52 10° NNE 03:53:13 36° E 03:56:36 10° SSE visible
11 Mar 9.5 03:23:36 10° NE 03:26:16 19° E 03:28:57 10° SE visible
12 Mar 10.2 02:58:45 10° E 02:59:13 10° E 02:59:41 10° E visible
12 Mar 6.5 04:29:22 10° N 04:32:58 76° WNW 04:36:37 10° SSW visible
13 Mar 7.5 04:02:36 10° NNE 04:06:09 52° E 04:09:43 10° S visible
14 Mar 9.0 03:36:07 10° NE 03:39:13 26° E 03:42:21 10° SSE visible
